Weather History for Zanesville, OH

Change the Weather History Date:

Tuesday, November 6, 2012

  Actual Average Record
Temperature  
Mean Temperature 36 °F 47 °F  
Max Temperature 49 °F 57 °F 76 °F (1975)
Min Temperature 22 °F 36 °F 20 °F (1953)
Degree Days  
Heating Degree Days 29 18  
Month to date heating degree days 155 105  
Since 1 July heating degree days 677 592  
Cooling Degree Days 0 0  
Month to date cooling degree days 0 0  
Year to date cooling degree days 980 768  
Moisture  
Dew Point 25 °F    
Average Humidity 65    
Maximum Humidity 88    
Minimum Humidity 42    
Precipitation  
Precipitation 0.00 in 0.09 in 0.65 in (1951)
Month to date precipitation 0.02 0.59  
Year to date precipitation 30.17 32.73  
Sea Level Pressure  
Sea Level Pressure 30.04 in    
Wind  
Wind Speed 2 mph (NNE)    
Max Wind Speed 9 mph    
Max Gust Speed 12 mph    
Visibility 10 miles    
Events      
T = Trace of Precipitation, MM = Missing Value Source: NWS Daily Summary

Daily Weather History Graph

Daily Weather History Graph

Search for Another Location

Airport:

Trip Planner

Search our weather history database for the weather conditions in past years. The results will help you decide how hot, cold, wet, or windy it might be!

Date:

Astronomy

Nov. 06, 2012 Rise Set
Actual Time 7:02 AM EST 5:19 PM EST
Civil Twilight 6:34 AM EST 5:47 PM EST
Nautical Twilight 6:02 AM EST 6:19 PM EST
Astronomical Twilight 5:30 AM EST 6:51 PM EST
Moon 11:56 PM EST (11/6) 12:54 PM EST (11/6)
Length of Visible Light 11h 13m
Length of Day
10h 16m
Waning Gibbous, 53% of the Moon is Illuminated
Nov 6
Waning Gibbous
Nov 6
Last Quarter
Nov 13
New
Nov 20
First Quarter
Nov 28
Full

Hourly Weather History & Observations

Time (EST) Temp. Windchill Dew Point Humidity Pressure Visibility Wind Dir Wind Speed Gust Speed Precip Events Conditions
12:53 AM 28.9 °F - 23.0 °F 78% 30.15 in 10.0 mi Calm Calm - N/A   Clear
1:53 AM 30.0 °F - 24.1 °F 79% 30.14 in 10.0 mi Calm Calm - N/A   Clear
2:53 AM 27.0 °F - 23.0 °F 85% 30.14 in 10.0 mi Calm Calm - N/A   Clear
3:53 AM 25.0 °F - 21.9 °F 88% 30.12 in 10.0 mi Calm Calm - N/A   Clear
4:53 AM 25.0 °F - 21.9 °F 88% 30.12 in 10.0 mi Calm Calm - N/A   Clear
5:53 AM 25.0 °F - 21.9 °F 88% 30.11 in 9.0 mi Calm Calm - N/A   Clear
6:53 AM 25.0 °F - 21.9 °F 88% 30.11 in 9.0 mi Calm Calm - N/A   Clear
7:53 AM 26.1 °F 21.9 °F 21.9 °F 84% 30.11 in 7.0 mi North 3.5 mph - N/A   Clear
8:53 AM 32.0 °F 28.7 °F 26.1 °F 79% 30.10 in 10.0 mi North 3.5 mph - N/A   Clear
9:53 AM 37.0 °F 31.0 °F 27.0 °F 67% 30.10 in 10.0 mi East 8.1 mph - N/A   Clear
10:53 AM 39.0 °F 34.8 °F 27.0 °F 62% 30.09 in 10.0 mi East 5.8 mph - N/A   Clear
11:53 AM 43.0 °F 41.3 °F 27.0 °F 53% 30.05 in 10.0 mi East 3.5 mph - N/A   Clear
12:53 PM 45.0 °F 43.5 °F 28.0 °F 52% 30.03 in 10.0 mi Variable 3.5 mph - N/A   Clear
1:53 PM 48.0 °F - 28.0 °F 46% 30.00 in 10.0 mi North 4.6 mph - N/A   Clear
2:53 PM 48.9 °F - 27.0 °F 43% 29.98 in 10.0 mi Calm Calm - N/A   Clear
3:53 PM 48.9 °F - 27.0 °F 43% 29.97 in 10.0 mi Calm Calm - N/A   Clear
4:53 PM 46.9 °F - 27.0 °F 46% 29.97 in 10.0 mi NNE 3.5 mph - N/A   Clear
5:53 PM 44.1 °F - 26.1 °F 49% 29.97 in 10.0 mi Calm Calm - N/A   Clear
6:53 PM 39.9 °F 37.8 °F 26.1 °F 58% 29.97 in 10.0 mi North 3.5 mph - N/A   Clear
7:53 PM 37.9 °F - 27.0 °F 65% 29.97 in 10.0 mi Calm Calm - N/A   Clear
8:53 PM 36.0 °F 33.3 °F 26.1 °F 67% 29.97 in 10.0 mi North 3.5 mph - N/A   Clear
9:53 PM 35.1 °F 32.2 °F 26.1 °F 70% 29.96 in 10.0 mi North 3.5 mph - N/A   Clear
10:53 PM 30.9 °F - 26.1 °F 82% 29.94 in 10.0 mi Calm Calm - N/A   Clear
11:53 PM 30.0 °F - 26.1 °F 85% 29.93 in 10.0 mi Calm Calm - N/A   Clear